Louisburg, NC

3:20 PM EST on January 23, 2017 (GMT -0500)
Franklin County

Weather History for KLHZ - May, 2014

Change the Weather History Date:

Tuesday, May 13, 2014

  Actual Average (KRDU) Record (KRDU)
Temperature  
Mean Temperature 76 °F -  
Max Temperature 89 °F 78 °F 93 °F (2000)
Min Temperature 64 °F 55 °F 40 °F (1960)
Cooling Degree Days 12    
Growing Degree Days 26 (Base 50)    
Moisture  
Dew Point 65 °F    
Average Humidity 73    
Maximum Humidity 100    
Minimum Humidity 40    
Precipitation  
Precipitation 0.00 in - - ()
Sea Level Pressure  
Sea Level Pressure 30.13 in    
Wind  
Wind Speed 1 mph (South)    
Max Wind Speed 8 mph    
Max Gust Speed -    
Visibility 9 miles    
Events      
Averages and records for this station are not official NWS values.
T = Trace of Precipitation, MM = Missing Value Source: NWS Daily Summary

Daily Weather History Graph

Daily Weather History Graph

Search for Another Location

Airport or City:

Trip Planner

Search our weather history database for the weather conditions in past years. The results will help you decide how hot, cold, wet, or windy it might be!

Date:

Astronomy

May. 13, 2014 Rise Set
Actual Time 6:09 AM EDT 8:10 PM EDT
Civil Twilight 5:40 AM EDT 8:39 PM EDT
Nautical Twilight 5:06 AM EDT 9:13 PM EDT
Astronomical Twilight 4:29 AM EDT 9:50 PM EDT
Moon 7:12 PM EDT (5/13) 5:21 AM EDT (5/13)
Length of Visible Light 14h 58m
Length of Day
14h 01m
Waxing Gibbous, 98% of the Moon is Illuminated
May 13
Waxing Gibbous
May 14
Full
May 21
Last Quarter
May 28
New
Jun 5
First Quarter

Hourly Weather History & Observations

Time (EDT) Temp. Heat Index Dew Point Humidity Pressure Visibility Wind Dir Wind Speed Gust Speed Precip Events Conditions
12:15 AM 71.6 °F - 64.4 °F 78% 30.14 in 10.0 mi SSW 3.5 mph - N/A   Clear
12:35 AM 69.8 °F - 64.4 °F 83% 30.14 in 10.0 mi Calm Calm - N/A   Clear
12:55 AM 69.8 °F - 64.4 °F 83% 30.14 in 10.0 mi Calm Calm - N/A   Clear
1:15 AM 69.8 °F - 64.4 °F 83% 30.13 in 10.0 mi Calm Calm - N/A   Clear
1:35 AM 69.8 °F - 66.2 °F 88% 30.13 in 10.0 mi Calm Calm - N/A   Clear
1:55 AM 68.0 °F - 64.4 °F 88% 30.13 in 10.0 mi Calm Calm - N/A   Clear
2:15 AM 68.0 °F - 64.4 °F 88% 30.12 in 10.0 mi Calm Calm - N/A   Clear
2:35 AM 68.0 °F - 64.4 °F 88% 30.11 in 10.0 mi Calm Calm - N/A   Clear
2:55 AM 68.0 °F - 66.2 °F 94% 30.12 in 7.0 mi Calm Calm - N/A   Clear
3:15 AM 68.0 °F - 66.2 °F 94% 30.12 in 7.0 mi Calm Calm - N/A   Clear
3:35 AM 68.0 °F - 66.2 °F 94% 30.12 in 7.0 mi Calm Calm - N/A   Clear
3:55 AM 68.0 °F - 66.2 °F 94% 30.12 in 7.0 mi Calm Calm - N/A   Clear
4:15 AM 68.0 °F - 66.2 °F 94% 30.13 in 7.0 mi Calm Calm - N/A   Clear
4:35 AM 68.0 °F - 66.2 °F 94% 30.13 in 7.0 mi Calm Calm - N/A   Clear
4:55 AM 68.0 °F - 66.2 °F 94% 30.13 in 7.0 mi Calm Calm - N/A   Clear
5:15 AM 66.2 °F - 64.4 °F 94% 30.13 in 5.0 mi Calm Calm - N/A   Clear
5:35 AM 64.4 °F - 64.4 °F 100% 30.13 in 5.0 mi Calm Calm - N/A   Clear
5:55 AM 64.4 °F - 64.4 °F 100% 30.13 in 4.0 mi Calm Calm - N/A   Clear
6:15 AM 64.4 °F - 64.4 °F 100% 30.13 in 3.0 mi Calm Calm - N/A   Clear
6:35 AM 64.4 °F - 64.4 °F 100% 30.14 in 1.8 mi Calm Calm - N/A   Mist
6:55 AM 64.4 °F - 64.4 °F 100% 30.14 in 3.0 mi Calm Calm - N/A   Clear
7:15 AM 68.0 °F - 66.2 °F 94% 30.14 in 5.0 mi Calm Calm - N/A   Clear
7:35 AM 69.8 °F - 68.0 °F 94% 30.15 in 7.0 mi Calm Calm - N/A   Clear
7:55 AM 69.8 °F - 68.0 °F 94% 30.15 in 7.0 mi Calm Calm - N/A   Clear
9:15 AM 75.2 °F - 68.0 °F 78% 30.17 in 10.0 mi Calm Calm - N/A   Clear
9:35 AM 77.0 °F - 68.0 °F 74% 30.17 in 10.0 mi Calm Calm - N/A   Clear
9:55 AM 77.0 °F - 68.0 °F 74% 30.17 in 10.0 mi Calm Calm - N/A   Clear
10:15 AM 78.8 °F - 68.0 °F 69% 30.17 in 10.0 mi Calm Calm - N/A   Clear
11:55 AM 84.2 °F 87.3 °F 68.0 °F 58% 30.16 in 10.0 mi Calm Calm - N/A   Clear
12:35 PM 86.0 °F 88.2 °F 66.2 °F 51% 30.15 in 10.0 mi Calm Calm - N/A   Scattered Clouds
1:15 PM 87.8 °F 89.4 °F 64.4 °F 46% 30.15 in 10.0 mi Calm Calm - N/A   Mostly Cloudy
1:35 PM 86.0 °F 86.6 °F 62.6 °F 45% 30.14 in 10.0 mi Calm Calm - N/A   Scattered Clouds
1:55 PM 87.8 °F 89.4 °F 64.4 °F 46% 30.14 in 10.0 mi South 3.5 mph - N/A   Scattered Clouds
2:15 PM 87.8 °F 88.5 °F 62.6 °F 43% 30.13 in 10.0 mi Calm Calm - N/A   Scattered Clouds
2:35 PM 87.8 °F 89.4 °F 64.4 °F 46% 30.13 in 10.0 mi Calm Calm - N/A   Scattered Clouds
2:55 PM 87.8 °F 89.4 °F 64.4 °F 46% 30.13 in 10.0 mi Calm Calm - N/A   Scattered Clouds
3:15 PM 87.8 °F 89.4 °F 64.4 °F 46% 30.12 in 10.0 mi Calm Calm - N/A   Clear
3:35 PM 87.8 °F 89.4 °F 64.4 °F 46% 30.11 in 10.0 mi Calm Calm - N/A   Clear
3:55 PM 87.8 °F 88.5 °F 62.6 °F 43% 30.11 in 10.0 mi South 5.8 mph - N/A   Clear
4:15 PM 89.6 °F 91.1 °F 64.4 °F 43% 30.10 in 10.0 mi South 6.9 mph - N/A   Scattered Clouds
4:35 PM 89.6 °F 91.1 °F 64.4 °F 43% 30.10 in 10.0 mi South 6.9 mph - N/A   Scattered Clouds
4:55 PM 89.6 °F 90.1 °F 62.6 °F 40% 30.10 in 10.0 mi SSW 4.6 mph - N/A   Clear
5:15 PM 87.8 °F 89.4 °F 64.4 °F 46% 30.10 in 10.0 mi SSE 8.1 mph - N/A   Clear
5:35 PM 87.8 °F 89.4 °F 64.4 °F 46% 30.10 in 10.0 mi South 5.8 mph - N/A   Clear
5:55 PM 87.8 °F 88.5 °F 62.6 °F 43% 30.10 in 10.0 mi South 5.8 mph - N/A   Clear
6:15 PM 87.8 °F 88.5 °F 62.6 °F 43% 30.09 in 10.0 mi South 4.6 mph - N/A   Clear
6:35 PM 86.0 °F 87.3 °F 64.4 °F 48% 30.09 in 10.0 mi South 4.6 mph - N/A   Clear
6:55 PM 86.0 °F 87.3 °F 64.4 °F 48% 30.10 in 10.0 mi SSE 3.5 mph - N/A   Clear
7:15 PM 82.4 °F 84.6 °F 66.2 °F 58% 30.09 in 10.0 mi Calm Calm - N/A   Clear
7:35 PM 78.8 °F - 68.0 °F 69% 30.09 in 10.0 mi Calm Calm - N/A   Clear
8:15 PM 73.4 °F - 66.2 °F 78% 30.10 in 10.0 mi Calm Calm - N/A   Clear
8:35 PM 71.6 °F - 64.4 °F 78% 30.11 in 10.0 mi Calm Calm - N/A   Clear
8:55 PM 71.6 °F - 64.4 °F 78% 30.11 in 10.0 mi Calm Calm - N/A   Clear
9:15 PM 71.6 °F - 64.4 °F 78% 30.11 in 10.0 mi Calm Calm - N/A   Clear
9:35 PM 71.6 °F - 64.4 °F 78% 30.13 in 10.0 mi Calm Calm - N/A   Clear
9:55 PM 69.8 °F - 64.4 °F 83% 30.14 in 10.0 mi Calm Calm - N/A   Clear
10:15 PM 69.8 °F - 64.4 °F 83% 30.14 in 10.0 mi Calm Calm - N/A   Clear
10:35 PM 71.6 °F - 64.4 °F 78% 30.15 in 10.0 mi Calm Calm - N/A   Clear
10:55 PM 73.4 °F - 64.4 °F 73% 30.15 in 10.0 mi Calm Calm - N/A   Clear
11:15 PM 73.4 °F - 66.2 °F 78% 30.15 in 10.0 mi Calm Calm - N/A   Clear
11:35 PM 73.4 °F - 68.0 °F 83% 30.16 in 10.0 mi Calm Calm - N/A   Clear
11:55 PM 73.4 °F - 68.0 °F 83% 30.16 in 10.0 mi South 4.6 mph - N/A   Clear